Regional Weather Roundup
Issued by NWS

Home | Current Version | Previous Version | Text Only | Print | Product List | Glossary On
Versions: 1 2 3 4 5 6 7 8 9 10 11 12 13 14 15 16 17 18 19 20 21 22 23 24 25 26 27 28 29 30 31 32 33 34 35 36 37 38 39 40 41 42 43 44 45 46 47 48 49 50
000
ASUS43 KBIS 281159
RWRND

NORTH DAKOTA REGIONAL WEATHER ROUNDUP
NATIONAL WEATHER SERVICE BISMARCK ND
600 AM CST FRI NOV 28 2014

NOTE: "FAIR" INDICATES FEW OR NO CLOUDS BELOW 12,000 FEET WITH NO
SIGNIFICANT WEATHER AND/OR OBSTRUCTIONS TO VISIBILITY.


NDZ001>003-009>011-017-281300-
NORTHWEST NORTH DAKOTA

CITY           SKY/WX    TMP DP  RH WIND       PRES   REMARKS
WILLISTON      CLOUDY    17  13  84 E9        29.72F WCI   6
6HR MIN TEMP:  15; 6HR MAX TEMP:  19; 6HR PCP:  0.09;

MINOT          CLOUDY     8   4  83 E12       29.82F WCI  -7
$$

NDZ018>021-031>035-040>046-281300-
SOUTHWEST NORTH DAKOTA

CITY           SKY/WX    TMP DP  RH WIND       PRES   REMARKS
BISMARCK       CLOUDY    10   7  87 E13       29.79F WCI  -5
6HR MIN TEMP:   7; 6HR MAX TEMP:  10; 6HR PCP:  0.01;

GARRISON         N/A     11   8  88 E10       29.78R WCI  -3
6HR MIN TEMP:  10; 6HR MAX TEMP:  12; 6HR PCP:  0.01;

HETTINGER ARPT CLOUDY    32  26  78 N6        29.67S
$$

NDZ004>008-012>016-024-026-027-054-281300-
NORTHEAST NORTH DAKOTA

CITY           SKY/WX    TMP DP  RH WIND       PRES   REMARKS
GRAND FORKS    CLOUDY    12   6  77 SE7       30.00F WCI   1
GRND FRKS AFB  CLOUDY    10   7  85 SE9       30.00S WCI  -2
DEVILS LAKE    CLOUDY     9  -2  61 E8        29.90S WCI  -4
$$

NDZ022-023-025-028>030-036>039-047>053-281300-
SOUTHEAST NORTH DAKOTA

CITY           SKY/WX    TMP DP  RH WIND       PRES   REMARKS
FARGO          CLOUDY    13   5  70 SE9       29.99F WCI   1
6HR MIN TEMP:  11; 6HR MAX TEMP:  13; 6HR PCP:  0.01;

JAMESTOWN      CLOUDY     7   3  84 E12       29.87F WCI  -8
$$




USA.gov is the U.S. government's official web portal to all federal, state and local government web resources and services.